"Sample Date","Sample Time","Sample Value","Units","Flow Rate","Sample Interval","Number Channels","Micron Size 0","Counts/Channel 0","Micron Size 1","Counts/Channel 1","Micron Size 2","Counts/Channel 2","Micron Size 3","Counts/Channel 3","Micron Size 4","Counts/Channel 4","Micron Size 5","Counts/Channel 5","Micron Size 6","Counts/Channel 6","Micron Size 7","Counts/Channel 7","Micron Size 8","Counts/Channel 8","Micron Size 9","Counts/Channel 9","Micron Size 10","Counts/Channel 10","Micron Size 11","Counts/Channel 11","Micron Size 12","Counts/Channel 12","Micron Size 13","Counts/Channel 13","Micron Size 14","Counts/Channel 14","Micron Size 15","Counts/Channel 15","Micron Size 16","Counts/Channel 16","Micron Size 17","Counts/Channel 17","Micron Size 18","Counts/Channel 18","Micron Size 19","Counts/Channel 19","Micron Size 20","Counts/Channel 20","Micron Size 21","Counts/Channel 21","Micron Size 22","Counts/Channel 22","Micron Size 23","Counts/Channel 23","Micron Size 24","Counts/Channel 24","Micron Size 25","Counts/Channel 25","Micron Size 26","Counts/Channel 26","Micron Size 27","Counts/Channel 27","Micron Size 28","Counts/Channel 28","Micron Size 29","Counts/Channel 29","Micron Size 30","Counts/Channel 30","Micron Size 31","Counts/Channel 31"
"04/05/08","22:00:00",4343.000,"cc",28349.469,6.00,6,0.100,3017.000,0.200,581.000,0.300,371.000,0.500,299.000,1.000,75.000,5.000,0
"04/05/08","22:00:06",4133.000,"cc",28307.066,6.00,6,0.100,2868.000,0.200,560.000,0.300,334.000,0.500,314.000,1.000,57.000,5.000,0
"04/05/08","22:00:12",3939.000,"cc",28308.816,6.00,6,0.100,2778.000,0.200,556.000,0.300,273.000,0.500,272.000,1.000,60.000,5.000,0
"04/05/08","22:00:18",4986.000,"cc",28343.436,6.00,6,0.100,3347.000,0.200,750.000,0.300,406.000,0.500,399.000,1.000,84.000,5.000,0
"04/05/08","22:00:24",4070.000,"cc",28285.955,6.00,6,0.100,2939.000,0.200,495.000,0.300,286.000,0.500,287.000,1.000,63.000,5.000,0
"04/05/08","22:00:30",4482.000,"cc",28325.750,6.00,6,0.100,2992.000,0.200,696.000,0.300,375.000,0.500,342.000,1.000,77.000,5.000,0
"04/05/08","22:00:36",4497.000,"cc",28264.977,6.00,6,0.100,3094.000,0.200,637.000,0.300,354.000,0.500,330.000,1.000,82.000,5.000,0
"04/05/08","22:00:42",6176.000,"cc",28350.606,6.00,6,0.100,3919.000,0.200,1019.000,0.300,616.000,0.500,525.000,1.000,97.000,5.000,0
"04/05/08","22:00:48",4040.000,"cc",28351.453,6.00,6,0.100,2848.000,0.200,582.000,0.300,273.000,0.500,279.000,1.000,58.000,5.000,0
"04/05/08","22:00:54",6537.000,"cc",28292.895,6.00,6,0.100,4185.000,0.200,1148.000,0.300,632.000,0.500,478.000,1.000,94.000,5.000,0
"04/05/08","22:01:00",4051.000,"cc",28293.826,6.00,6,0.100,2887.000,0.200,526.000,0.300,269.000,0.500,309.000,1.000,60.000,5.000,0
"04/05/08","22:01:06",3880.000,"cc",28381.578,6.00,6,0.100,2793.000,0.200,509.000,0.300,243.000,0.500,272.000,1.000,63.000,5.000,0
"04/05/08","22:01:12",5031.000,"cc",28353.738,6.00,6,0.100,3392.000,0.200,749.000,0.300,441.000,0.500,385.000,1.000,64.000,5.000,0
"04/05/08","22:01:18",5156.000,"cc",28300.795,6.00,6,0.100,3519.000,0.200,792.000,0.300,397.000,0.500,370.000,1.000,78.000,5.000,0
"04/05/08","22:01:24",5441.000,"cc",28275.873,6.00,6,0.100,3547.000,0.200,884.000,0.300,507.000,0.500,417.000,1.000,86.000,5.000,0
"04/05/08","22:01:30",4878.000,"cc",28333.787,6.00,6,0.100,3238.000,0.200,765.000,0.300,432.000,0.500,363.000,1.000,80.000,5.000,0
"04/05/08","22:01:36",4146.000,"cc",28317.918,6.00,6,0.100,2941.000,0.200,560.000,0.300,280.000,0.500,279.000,1.000,86.000,5.000,0
"04/05/08","22:01:42",4357.000,"cc",28348.902,6.00,6,0.100,2964.000,0.200,655.000,0.300,330.000,0.500,353.000,1.000,55.000,5.000,0
"04/05/08","22:01:48",8422.000,"cc",28318.256,6.00,6,0.100,5095.000,0.200,1588.000,0.300,935.000,0.500,668.000,1.000,136.000,5.000,0
"04/05/08","22:01:54",12760.000,"cc",28298.027,6.00,6,0.100,7438.000,0.200,2633.000,0.300,1527.000,0.500,970.000,1.000,192.000,5.000,0
"04/05/08","22:02:00",4074.000,"cc",28248.613,6.00,6,0.100,2875.000,0.200,549.000,0.300,294.000,0.500,283.000,1.000,73.000,5.000,0
"04/05/08","22:02:06",3496.000,"cc",28294.926,6.00,6,0.100,2564.000,0.200,424.000,0.300,222.000,0.500,244.000,1.000,42.000,5.000,0
"04/05/08","22:02:12",6321.000,"cc",28379.994,6.00,6,0.100,3969.000,0.200,1062.000,0.300,656.000,0.500,539.000,1.000,95.000,5.000,0
"04/05/08","22:02:18",6643.000,"cc",28342.744,6.00,6,0.100,4191.000,0.200,1130.000,0.300,703.000,0.500,496.000,1.000,123.000,5.000,0
"04/05/08","22:02:24",5938.000,"cc",28333.549,6.00,6,0.100,3815.000,0.200,982.000,0.300,599.000,0.500,461.000,1.000,81.000,5.000,0
"04/05/08","22:02:30",6247.000,"cc",28314.686,6.00,6,0.100,3994.000,0.200,1083.000,0.300,612.000,0.500,467.000,1.000,91.000,5.000,0
"04/05/08","22:02:36",3889.000,"cc",28282.914,6.00,6,0.100,2837.000,0.200,532.000,0.300,232.000,0.500,238.000,1.000,50.000,5.000,0
"04/05/08","22:02:42",6510.000,"cc",28381.670,6.00,6,0.100,4061.000,0.200,1131.000,0.300,677.000,0.500,531.000,1.000,110.000,5.000,0
"04/05/08","22:02:48",4629.000,"cc",28265.131,6.00,6,0.100,3169.000,0.200,651.000,0.300,379.000,0.500,357.000,1.000,73.000,5.000,0
"04/05/08","22:02:54",4803.000,"cc",28304.424,6.00,6,0.100,3192.000,0.200,745.000,0.300,405.000,0.500,374.000,1.000,87.000,5.000,0
"04/05/08","22:03:00",6621.000,"cc",28274.559,6.00,6,0.100,4215.000,0.200,1089.000,0.300,707.000,0.500,515.000,1.000,95.000,5.000,0
"04/05/08","22:03:06",4647.000,"cc",28320.914,6.00,6,0.100,3248.000,0.200,669.000,0.300,371.000,0.500,290.000,1.000,69.000,5.000,0
"04/05/08","22:03:12",5334.000,"cc",28328.084,6.00,6,0.100,3600.000,0.200,890.000,0.300,431.000,0.500,339.000,1.000,74.000,5.000,0
"04/05/08","22:03:18",4208.000,"cc",28294.346,6.00,6,0.100,3018.000,0.200,612.000,0.300,273.000,0.500,250.000,1.000,55.000,5.000,0
"04/05/08","22:03:24",5500.000,"cc",28321.744,6.00,6,0.100,3764.000,0.200,834.000,0.300,450.000,0.500,387.000,1.000,65.000,5.000,0
"04/05/08","22:03:30",8416.000,"cc",28380.084,6.00,6,0.100,5243.000,0.200,1492.000,0.300,912.000,0.500,631.000,1.000,138.000,5.000,0
"04/05/08","22:03:36",5215.000,"cc",28357.647,6.00,6,0.100,3734.000,0.200,720.000,0.300,341.000,0.500,361.000,1.000,59.000,5.000,0
"04/05/08","22:03:42",4828.000,"cc",28272.299,6.00,6,0.100,3502.000,0.200,650.000,0.300,315.000,0.500,301.000,1.000,60.000,5.000,0
"04/05/08","22:03:48",4876.000,"cc",28300.982,6.00,6,0.100,3563.000,0.200,657.000,0.300,295.000,0.500,300.000,1.000,61.000,5.000,0
"04/05/08","22:03:54",4886.000,"cc",28318.168,6.00,6,0.100,3610.000,0.200,653.000,0.300,301.000,0.500,270.000,1.000,52.000,5.000,0
"04/05/08","22:04:00",5615.000,"cc",28320.055,6.00,6,0.100,3945.000,0.200,814.000,0.300,413.000,0.500,381.000,1.000,62.000,5.000,0
"04/05/08","22:04:06",5164.000,"cc",28309.471,6.00,6,0.100,3784.000,0.200,676.000,0.300,314.000,0.500,312.000,1.000,78.000,5.000,0
"04/05/08","22:04:12",6180.000,"cc",28303.301,6.00,6,0.100,4317.000,0.200,948.000,0.300,458.000,0.500,390.000,1.000,67.000,5.000,0
"04/05/08","22:04:18",5192.000,"cc",28375.680,6.00,6,0.100,3782.000,0.200,713.000,0.300,335.000,0.500,297.000,1.000,65.000,5.000,0
"04/05/08","22:04:24",5036.000,"cc",28295.211,6.00,6,0.100,3596.000,0.200,690.000,0.300,347.000,0.500,330.000,1.000,73.000,5.000,0
"04/05/08","22:04:30",4851.000,"cc",28313.885,6.00,6,0.100,3578.000,0.200,642.000,0.300,293.000,0.500,290.000,1.000,48.000,5.000,0
"04/05/08","22:04:36",7211.000,"cc",28318.912,6.00,6,0.100,4778.000,0.200,1198.000,0.300,650.000,0.500,490.000,1.000,95.000,5.000,0
"04/05/08","22:04:42",4504.000,"cc",28283.463,6.00,6,0.100,3288.000,0.200,589.000,0.300,297.000,0.500,269.000,1.000,61.000,5.000,0
"04/05/08","22:04:48",8205.000,"cc",28259.559,6.00,6,0.100,5171.000,0.200,1385.000,0.300,902.000,0.500,635.000,1.000,112.000,5.000,0
"04/05/08","22:04:54",4231.000,"cc",28396.539,6.00,6,0.100,3147.000,0.200,549.000,0.300,234.000,0.500,249.000,1.000,52.000,5.000,0
"04/05/08","22:05:00",13503.000,"cc",28348.129,6.00,6,0.100,7983.000,0.200,2733.000,0.300,1594.000,0.500,1035.000,1.000,158.000,5.000,0
"04/05/08","22:05:06",4854.000,"cc",28339.869,6.00,6,0.100,3393.000,0.200,702.000,0.300,381.000,0.500,308.000,1.000,70.000,5.000,0
"04/05/08","22:05:12",4231.000,"cc",28258.541,6.00,6,0.100,3080.000,0.200,531.000,0.300,290.000,0.500,273.000,1.000,57.000,5.000,0
"04/05/08","22:05:18",4333.000,"cc",28328.699,6.00,6,0.100,3152.000,0.200,563.000,0.300,302.000,0.500,269.000,1.000,47.000,5.000,0
"04/05/08","22:05:24",4761.000,"cc",28313.490,6.00,6,0.100,3462.000,0.200,629.000,0.300,341.000,0.500,268.000,1.000,61.000,5.000,0
"04/05/08","22:05:30",10884.000,"cc",28286.059,6.00,6,0.100,6471.000,0.200,2152.000,0.300,1266.000,0.500,863.000,1.000,132.000,5.000,0
"04/05/08","22:05:36",4700.000,"cc",28354.838,6.00,6,0.100,3441.000,0.200,616.000,0.300,302.000,0.500,273.000,1.000,68.000,5.000,0
"04/05/08","22:05:42",9744.000,"cc",28333.113,6.00,6,0.100,5944.000,0.200,1938.000,0.300,1044.000,0.500,687.000,1.000,131.000,5.000,0
"04/05/08","22:05:48",7042.000,"cc",28235.377,6.00,6,0.100,4567.000,0.200,1176.000,0.300,713.000,0.500,497.000,1.000,89.000,5.000,0
"04/05/08","22:05:54",5007.000,"cc",28360.912,6.00,6,0.100,3599.000,0.200,698.000,0.300,362.000,0.500,283.000,1.000,65.000,5.000,0
"04/05/08","22:06:00",9546.000,"cc",28300.611,6.00,6,0.100,5905.000,0.200,1787.000,0.300,992.000,0.500,747.000,1.000,115.000,5.000,0
"04/05/08","22:06:06",5103.000,"cc",28284.266,6.00,6,0.100,3607.000,0.200,745.000,0.300,376.000,0.500,309.000,1.000,66.000,5.000,0
"04/05/08","22:06:12",5011.000,"cc",28342.848,6.00,6,0.100,3574.000,0.200,703.000,0.300,372.000,0.500,313.000,1.000,49.000,5.000,0
"04/05/08","22:06:18",4678.000,"cc",28326.404,6.00,6,0.100,3449.000,0.200,629.000,0.300,266.000,0.500,287.000,1.000,47.000,5.000,0
"04/05/08","22:06:24",4599.000,"cc",28332.447,6.00,6,0.100,3373.000,0.200,588.000,0.300,308.000,0.500,275.000,1.000,55.000,5.000,0
"04/05/08","22:06:30",4577.000,"cc",28341.191,6.00,6,0.100,3367.000,0.200,609.000,0.300,288.000,0.500,260.000,1.000,53.000,5.000,0
"04/05/08","22:06:36",4582.000,"cc",28299.910,6.00,6,0.100,3388.000,0.200,562.000,0.300,304.000,0.500,276.000,1.000,52.000,5.000,0
"04/05/08","22:06:42",10848.000,"cc",28262.738,6.00,6,0.100,6775.000,0.200,2101.000,0.300,1152.000,0.500,714.000,1.000,106.000,5.000,0
"04/05/08","22:06:48",6739.000,"cc",28311.596,6.00,6,0.100,4440.000,0.200,1147.000,0.300,637.000,0.500,430.000,1.000,85.000,5.000,0
"04/05/08","22:06:54",4921.000,"cc",28327.469,6.00,6,0.100,3497.000,0.200,676.000,0.300,375.000,0.500,301.000,1.000,72.000,5.000,0
"04/05/08","22:07:00",5199.000,"cc",28284.070,6.00,6,0.100,3742.000,0.200,744.000,0.300,354.000,0.500,307.000,1.000,52.000,5.000,0
"04/05/08","22:07:06",8732.000,"cc",28314.844,6.00,6,0.100,5497.000,0.200,1577.000,0.300,918.000,0.500,638.000,1.000,102.000,5.000,0
"04/05/08","22:07:12",5271.000,"cc",28350.356,6.00,6,0.100,3739.000,0.200,731.000,0.300,405.000,0.500,336.000,1.000,60.000,5.000,0
"04/05/08","22:07:18",5259.000,"cc",28340.760,6.00,6,0.100,3807.000,0.200,703.000,0.300,380.000,0.500,305.000,1.000,64.000,5.000,0
"04/05/08","22:07:24",6179.000,"cc",28360.492,6.00,6,0.100,4298.000,0.200,932.000,0.300,471.000,0.500,400.000,1.000,78.000,5.000,0
"04/05/08","22:07:30",5123.000,"cc",28252.807,6.00,6,0.100,3756.000,0.200,748.000,0.300,306.000,0.500,271.000,1.000,42.000,5.000,0
"04/05/08","22:07:36",5609.000,"cc",28332.147,6.00,6,0.100,4046.000,0.200,800.000,0.300,366.000,0.500,330.000,1.000,67.000,5.000,0
"04/05/08","22:07:42",6919.000,"cc",28292.984,6.00,6,0.100,4610.000,0.200,1172.000,0.300,610.000,0.500,452.000,1.000,75.000,5.000,0
"04/05/08","22:07:48",7414.000,"cc",28320.279,6.00,6,0.100,5008.000,0.200,1248.000,0.300,627.000,0.500,455.000,1.000,76.000,5.000,0
"04/05/08","22:07:54",7247.000,"cc",28287.354,6.00,6,0.100,4919.000,0.200,1270.000,0.300,571.000,0.500,419.000,1.000,68.000,5.000,0
"04/05/08","22:08:00",7136.000,"cc",28349.363,6.00,6,0.100,4798.000,0.200,1235.000,0.300,576.000,0.500,447.000,1.000,80.000,5.000,0
"04/05/08","22:08:06",6505.000,"cc",28335.316,6.00,6,0.100,4609.000,0.200,1067.000,0.300,434.000,0.500,318.000,1.000,77.000,5.000,0
"04/05/08","22:08:12",5891.000,"cc",28323.637,6.00,6,0.100,4351.000,0.200,860.000,0.300,344.000,0.500,275.000,1.000,61.000,5.000,0
"04/05/08","22:08:18",7742.000,"cc",28316.348,6.00,6,0.100,5223.000,0.200,1272.000,0.300,665.000,0.500,520.000,1.000,62.000,5.000,0
"04/05/08","22:08:24",7306.000,"cc",28293.758,6.00,6,0.100,5302.000,0.200,1127.000,0.300,468.000,0.500,354.000,1.000,55.000,5.000,0
"04/05/08","22:08:30",11872.000,"cc",28281.856,6.00,6,0.100,8910.000,0.200,2183.000,0.300,440.000,0.500,291.000,1.000,48.000,5.000,0
"04/05/08","22:08:36",12877.000,"cc",28329.166,6.00,6,0.100,9646.000,0.200,2398.000,0.300,461.000,0.500,310.000,1.000,62.000,5.000,0
"04/05/08","22:08:42",13133.000,"cc",28294.676,6.00,6,0.100,9502.000,0.200,2466.000,0.300,690.000,0.500,422.000,1.000,53.000,5.000,0
"04/05/08","22:08:48",12457.000,"cc",28403.447,6.00,6,0.100,9107.000,0.200,2348.000,0.300,548.000,0.500,381.000,1.000,73.000,5.000,0
"04/05/08","22:08:54",13146.000,"cc",28390.897,6.00,6,0.100,9634.000,0.200,2555.000,0.300,571.000,0.500,352.000,1.000,34.000,5.000,0
"04/05/08","22:09:00",14938.000,"cc",28263.252,6.00,6,0.100,11283.000,0.200,2884.000,0.300,509.000,0.500,232.000,1.000,30.000,5.000,0
"04/05/08","22:09:06",16297.000,"cc",28267.455,6.00,6,0.100,12045.000,0.200,3325.000,0.300,618.000,0.500,277.000,1.000,32.000,5.000,0
"04/05/08","22:09:12",17525.000,"cc",28266.275,6.00,6,0.100,12796.000,0.200,3557.000,0.300,787.000,0.500,356.000,1.000,29.000,5.000,0
"04/05/08","22:09:18",17659.000,"cc",28388.797,6.00,6,0.100,13013.000,0.200,3612.000,0.300,710.000,0.500,307.000,1.000,17.000,5.000,0
"04/05/08","22:09:24",17308.000,"cc",28270.678,6.00,6,0.100,12743.000,0.200,3509.000,0.300,698.000,0.500,332.000,1.000,26.000,5.000,0
"04/05/08","22:09:30",19724.000,"cc",28335.035,6.00,6,0.100,14006.000,0.200,4127.000,0.300,1062.000,0.500,473.000,1.000,56.000,5.000,0
"04/05/08","22:09:36",16768.000,"cc",28317.809,6.00,6,0.100,12477.000,0.200,3426.000,0.300,611.000,0.500,239.000,1.000,15.000,5.000,0
"04/05/08","22:09:42",16451.000,"cc",28312.731,6.00,6,0.100,12461.000,0.200,3334.000,0.300,484.000,0.500,154.000,1.000,18.000,5.000,0
"04/05/08","22:09:48",19149.000,"cc",28291.258,6.00,6,0.100,13840.000,0.200,4002.000,0.300,940.000,0.500,346.000,1.000,21.000,5.000,0
"04/05/08","22:09:54",17384.000,"cc",28344.469,6.00,6,0.100,12920.000,0.200,3574.000,0.300,625.000,0.500,245.000,1.000,20.000,5.000,0
"04/05/08","22:10:00",17046.000,"cc",28338.647,6.00,6,0.100,12730.000,0.200,3462.000,0.300,634.000,0.500,209.000,1.000,11.000,5.000,0
"04/05/08","22:10:06",17710.000,"cc",28337.275,6.00,6,0.100,13185.000,0.200,3590.000,0.300,690.000,0.500,228.000,1.000,17.000,5.000,0
"04/05/08","22:10:12",17444.000,"cc",28309.438,6.00,6,0.100,12976.000,0.200,3476.000,0.300,739.000,0.500,232.000,1.000,21.000,5.000,0
"04/05/08","22:10:18",15088.000,"cc",28263.565,6.00,6,0.100,11527.000,0.200,3027.000,0.300,416.000,0.500,109.000,1.000,9.000,5.000,0
"04/05/08","22:10:24",14976.000,"cc",28259.277,6.00,6,0.100,11427.000,0.200,3013.000,0.300,422.000,0.500,109.000,1.000,5.000,5.000,0
"04/05/08","22:10:30",13462.000,"cc",28370.703,6.00,6,0.100,10497.000,0.200,2605.000,0.300,300.000,0.500,59.000,1.000,1.000,5.000,0
"04/05/08","22:10:36",12695.000,"cc",28317.606,6.00,6,0.100,10016.000,0.200,2382.000,0.300,258.000,0.500,39.000,1.000,0,5.000,0
"04/05/08","22:10:42",15803.000,"cc",28348.432,6.00,6,0.100,11763.000,0.200,3205.000,0.300,659.000,0.500,169.000,1.000,7.000,5.000,0
"04/05/08","22:10:48",14767.000,"cc",28352.252,6.00,6,0.100,11292.000,0.200,2883.000,0.300,478.000,0.500,110.000,1.000,4.000,5.000,0
"04/05/08","22:10:54",14962.000,"cc",28287.332,6.00,6,0.100,11354.000,0.200,3025.000,0.300,461.000,0.500,115.000,1.000,7.000,5.000,0
"04/05/08","22:11:00",14148.000,"cc",28330.131,6.00,6,0.100,10881.000,0.200,2767.000,0.300,397.000,0.500,96.000,1.000,7.000,5.000,0
"04/05/08","22:11:06",15164.000,"cc",28328.867,6.00,6,0.100,11227.000,0.200,3097.000,0.300,634.000,0.500,194.000,1.000,12.000,5.000,0
"04/05/08","22:11:12",12594.000,"cc",28289.268,6.00,6,0.100,9777.000,0.200,2417.000,0.300,314.000,0.500,81.000,1.000,5.000,5.000,0
"04/05/08","22:11:18",18679.000,"cc",28387.719,6.00,6,0.100,13267.000,0.200,3906.000,0.300,1125.000,0.500,361.000,1.000,20.000,5.000,0
"04/05/08","22:11:24",15542.000,"cc",28276.690,6.00,6,0.100,11477.000,0.200,3133.000,0.300,704.000,0.500,209.000,1.000,19.000,5.000,0
"04/05/08","22:11:30",15516.000,"cc",28279.359,6.00,6,0.100,11110.000,0.200,3264.000,0.300,864.000,0.500,257.000,1.000,21.000,5.000,0
"04/05/08","22:11:36",11683.000,"cc",28328.201,6.00,6,0.100,8958.000,0.200,2285.000,0.300,361.000,0.500,73.000,1.000,6.000,5.000,0
"04/05/08","22:11:42",15901.000,"cc",28274.332,6.00,6,0.100,11188.000,0.200,3396.000,0.300,1008.000,0.500,293.000,1.000,16.000,5.000,0
"04/05/08","22:11:48",11840.000,"cc",28305.113,6.00,6,0.100,8988.000,0.200,2286.000,0.300,468.000,0.500,91.000,1.000,7.000,5.000,0
"04/05/08","22:11:54",12100.000,"cc",28315.533,6.00,6,0.100,9315.000,0.200,2313.000,0.300,379.000,0.500,86.000,1.000,7.000,5.000,0
"04/05/08","22:12:00",18143.000,"cc",28344.535,6.00,6,0.100,12333.000,0.200,3909.000,0.300,1343.000,0.500,504.000,1.000,54.000,5.000,0
"04/05/08","22:12:06",11264.000,"cc",28300.498,6.00,6,0.100,8795.000,0.200,2045.000,0.300,336.000,0.500,86.000,1.000,2.000,5.000,0
"04/05/08","22:12:12",13084.000,"cc",28312.127,6.00,6,0.100,9766.000,0.200,2529.000,0.300,573.000,0.500,183.000,1.000,33.000,5.000,0
"04/05/08","22:12:18",12364.000,"cc",28266.219,6.00,6,0.100,9376.000,0.200,2395.000,0.300,475.000,0.500,107.000,1.000,11.000,5.000,0
"04/05/08","22:12:24",11095.000,"cc",28301.383,6.00,6,0.100,8646.000,0.200,2035.000,0.300,328.000,0.500,76.000,1.000,10.000,5.000,0
"04/05/08","22:12:30",13613.000,"cc",28393.662,6.00,6,0.100,10264.000,0.200,2668.000,0.300,549.000,0.500,122.000,1.000,10.000,5.000,0
"04/05/08","22:12:36",13585.000,"cc",28346.039,6.00,6,0.100,10426.000,0.200,2709.000,0.300,386.000,0.500,60.000,1.000,4.000,5.000,0
"04/05/08","22:12:42",15703.000,"cc",28371.572,6.00,6,0.100,11564.000,0.200,3293.000,0.300,629.000,0.500,204.000,1.000,13.000,5.000,0
"04/05/08","22:12:48",15281.000,"cc",28330.014,6.00,6,0.100,11377.000,0.200,3157.000,0.300,606.000,0.500,127.000,1.000,14.000,5.000,0
"04/05/08","22:12:54",13217.000,"cc",28274.002,6.00,6,0.100,9983.000,0.200,2682.000,0.300,432.000,0.500,113.000,1.000,7.000,5.000,0
"04/05/08","22:13:00",10621.000,"cc",28296.365,6.00,6,0.100,8310.000,0.200,1916.000,0.300,327.000,0.500,63.000,1.000,5.000,5.000,0
"04/05/08","22:13:06",14955.000,"cc",28305.545,6.00,6,0.100,10558.000,0.200,3183.000,0.300,883.000,0.500,301.000,1.000,30.000,5.000,0
"04/05/08","22:13:12",17679.000,"cc",28407.254,6.00,6,0.100,12558.000,0.200,3678.000,0.300,1050.000,0.500,363.000,1.000,30.000,5.000,0
"04/05/08","22:13:18",12150.000,"cc",28309.842,6.00,6,0.100,9344.000,0.200,2340.000,0.300,399.000,0.500,64.000,1.000,3.000,5.000,0
"04/05/08","22:13:24",13636.000,"cc",28313.270,6.00,6,0.100,10012.000,0.200,2795.000,0.300,641.000,0.500,173.000,1.000,15.000,5.000,0
"04/05/08","22:13:30",11383.000,"cc",28275.809,6.00,6,0.100,8733.000,0.200,2174.000,0.300,367.000,0.500,101.000,1.000,8.000,5.000,0
"04/05/08","22:13:36",11402.000,"cc",28299.326,6.00,6,0.100,8731.000,0.200,2212.000,0.300,372.000,0.500,79.000,1.000,8.000,5.000,0
"04/05/08","22:13:42",10116.000,"cc",28301.117,6.00,6,0.100,7992.000,0.200,1863.000,0.300,222.000,0.500,34.000,1.000,5.000,5.000,0
"04/05/08","22:13:48",12576.000,"cc",28305.250,6.00,6,0.100,9547.000,0.200,2432.000,0.300,492.000,0.500,98.000,1.000,7.000,5.000,0
"04/05/08","22:13:54",13767.000,"cc",28273.084,6.00,6,0.100,10254.000,0.200,2698.000,0.300,633.000,0.500,167.000,1.000,15.000,5.000,0
"04/05/08","22:14:00",11930.000,"cc",28331.471,6.00,6,0.100,9192.000,0.200,2248.000,0.300,396.000,0.500,93.000,1.000,1.000,5.000,0
"04/05/08","22:14:06",11021.000,"cc",28324.648,6.00,6,0.100,8698.000,0.200,2064.000,0.300,237.000,0.500,22.000,1.000,0,5.000,0
"04/05/08","22:14:12",17902.000,"cc",28371.768,6.00,6,0.100,12460.000,0.200,3830.000,0.300,1199.000,0.500,391.000,1.000,22.000,5.000,0
"04/05/08","22:14:18",13068.000,"cc",28314.643,6.00,6,0.100,9854.000,0.200,2636.000,0.300,469.000,0.500,105.000,1.000,4.000,5.000,0
"04/05/08","22:14:24",14513.000,"cc",28256.992,6.00,6,0.100,10642.000,0.200,2981.000,0.300,702.000,0.500,174.000,1.000,14.000,5.000,0
"04/05/08","22:14:30",11558.000,"cc",28321.959,6.00,6,0.100,8986.000,0.200,2188.000,0.300,326.000,0.500,54.000,1.000,4.000,5.000,0
"04/05/08","22:14:36",10760.000,"cc",28315.887,6.00,6,0.100,8327.000,0.200,1983.000,0.300,343.000,0.500,92.000,1.000,15.000,5.000,0
"04/05/08","22:14:42",14101.000,"cc",28344.522,6.00,6,0.100,10200.000,0.200,2947.000,0.300,728.000,0.500,210.000,1.000,16.000,5.000,0
"04/05/08","22:14:48",13557.000,"cc",28322.684,6.00,6,0.100,9862.000,0.200,2719.000,0.300,728.000,0.500,215.000,1.000,33.000,5.000,0
"04/05/08","22:14:54",12776.000,"cc",28350.084,6.00,6,0.100,9517.000,0.200,2495.000,0.300,571.000,0.500,182.000,1.000,11.000,5.000,0
"04/05/08","22:15:00",11416.000,"cc",28301.727,6.00,6,0.100,8735.000,0.200,2203.000,0.300,369.000,0.500,97.000,1.000,12.000,5.000,0
"04/05/08","22:15:06",11914.000,"cc",28266.227,6.00,6,0.100,8992.000,0.200,2270.000,0.300,506.000,0.500,129.000,1.000,17.000,5.000,0
"04/05/08","22:15:12",12172.000,"cc",28287.539,6.00,6,0.100,9174.000,0.200,2369.000,0.300,462.000,0.500,148.000,1.000,19.000,5.000,0
"04/05/08","22:15:18",22881.000,"cc",28355.453,6.00,6,0.100,15296.000,0.200,5036.000,0.300,1846.000,0.500,636.000,1.000,67.000,5.000,0
"04/05/08","22:15:24",12519.000,"cc",28312.604,6.00,6,0.100,9644.000,0.200,2413.000,0.300,393.000,0.500,66.000,1.000,3.000,5.000,0
"04/05/08","22:15:30",13292.000,"cc",28295.106,6.00,6,0.100,10015.000,0.200,2663.000,0.300,494.000,0.500,116.000,1.000,4.000,5.000,0
"04/05/08","22:15:36",17518.000,"cc",28279.559,6.00,6,0.100,12410.000,0.200,3674.000,0.300,1087.000,0.500,328.000,1.000,19.000,5.000,0
"04/05/08","22:15:42",11771.000,"cc",28345.125,6.00,6,0.100,8980.000,0.200,2288.000,0.300,421.000,0.500,79.000,1.000,3.000,5.000,0
"04/05/08","22:15:48",11165.000,"cc",28320.752,6.00,6,0.100,8518.000,0.200,2134.000,0.300,395.000,0.500,107.000,1.000,11.000,5.000,0
"04/05/08","22:15:54",10987.000,"cc",28268.541,6.00,6,0.100,8417.000,0.200,2051.000,0.300,410.000,0.500,99.000,1.000,10.000,5.000,0
"04/05/08","22:16:00",11519.000,"cc",28386.279,6.00,6,0.100,8744.000,0.200,2148.000,0.300,471.000,0.500,135.000,1.000,21.000,5.000,0
"04/05/08","22:16:06",10219.000,"cc",28361.127,6.00,6,0.100,8124.000,0.200,1842.000,0.300,230.000,0.500,23.000,1.000,0,5.000,0
"04/05/08","22:16:12",11032.000,"cc",28313.818,6.00,6,0.100,8606.000,0.200,2047.000,0.300,316.000,0.500,61.000,1.000,2.000,5.000,0
"04/05/08","22:16:18",11157.000,"cc",28238.795,6.00,6,0.100,8594.000,0.200,2157.000,0.300,340.000,0.500,63.000,1.000,3.000,5.000,0
"04/05/08","22:16:24",10564.000,"cc",28358.852,6.00,6,0.100,8243.000,0.200,1962.000,0.300,296.000,0.500,55.000,1.000,8.000,5.000,0
"04/05/08","22:16:30",16671.000,"cc",28310.094,6.00,6,0.100,11692.000,0.200,3564.000,0.300,1109.000,0.500,279.000,1.000,27.000,5.000,0
"04/05/08","22:16:36",12774.000,"cc",28290.242,6.00,6,0.100,9451.000,0.200,2552.000,0.300,588.000,0.500,172.000,1.000,11.000,5.000,0
"04/05/08","22:16:42",10288.000,"cc",28350.096,6.00,6,0.100,8229.000,0.200,1793.000,0.300,238.000,0.500,27.000,1.000,1.000,5.000,0
"04/05/08","22:16:48",10075.000,"cc",28288.090,6.00,6,0.100,7955.000,0.200,1842.000,0.300,250.000,0.500,28.000,1.000,0,5.000,0
"04/05/08","22:16:54",8279.000,"cc",28254.119,6.00,6,0.100,6663.000,0.200,1449.000,0.300,149.000,0.500,17.000,1.000,1.000,5.000,0